QLK1122 YSWG-YMML

Flight info

Callsign QLK1122
Flight time 0h 50m
Altitude 20000
Route WG W638 AY V147 TEMIS V169 ML
Aircraft DH8D/M-SDE2E3FGRY/H

Departure

Time 2026-04-26 01:28
Airport Wagga Wagga Airport (YSWG)

Arrival

Time 2026-04-26 02:18
Airport Melbourne Airport (YMML)
Time Latitude Longitude Altitude Speed Heading
2026-04-26 01:14 -35.15978 147.46187 736 ft 0 kts 337°
2026-04-26 01:19 -35.15977 147.46187 736 ft 0 kts 337°
2026-04-26 01:19 -35.15986 147.46190 736 ft 2 kts 354°
2026-04-26 01:20 -35.16001 147.46188 736 ft 2 kts 20°
2026-04-26 01:20 -35.16013 147.46179 736 ft 2 kts 45°
2026-04-26 01:20 -35.16021 147.46164 736 ft 2 kts 70°
2026-04-26 01:20 -35.16024 147.46156 736 ft 0 kts 70°
2026-04-26 01:23 -35.16019 147.46173 736 ft 8 kts 73°
2026-04-26 01:23 -35.16006 147.46256 736 ft 8 kts 109°
2026-04-26 01:23 -35.16066 147.46310 736 ft 16 kts 151°
2026-04-26 01:23 -35.16146 147.46365 736 ft 12 kts 149°
2026-04-26 01:24 -35.16222 147.46413 736 ft 12 kts 152°
2026-04-26 01:24 -35.16281 147.46451 736 ft 6 kts 153°
2026-04-26 01:24 -35.16327 147.46468 736 ft 7 kts 195°
2026-04-26 01:24 -35.16369 147.46397 736 ft 11 kts 243°
2026-04-26 01:25 -35.16404 147.46315 736 ft 10 kts 243°
2026-04-26 01:25 -35.16439 147.46233 736 ft 15 kts 241°
2026-04-26 01:25 -35.16493 147.46104 736 ft 16 kts 242°
2026-04-26 01:25 -35.16542 147.45989 736 ft 10 kts 243°
2026-04-26 01:26 -35.16597 147.45967 736 ft 9 kts 157°
2026-04-26 01:26 -35.16650 147.46001 736 ft 8 kts 152°
2026-04-26 01:26 -35.16690 147.46039 736 ft 6 kts 99°
2026-04-26 01:26 -35.16684 147.46063 736 ft 0 kts 64°
2026-04-26 01:27 -35.16607 147.46242 737 ft 64 kts 63°
2026-04-26 01:27 -35.16270 147.47014 738 ft 136 kts 63°
2026-04-26 01:28 -35.15819 147.48106 1070 ft 146 kts 64°
2026-04-26 01:28 -35.15374 147.49262 1526 ft 158 kts 65°
2026-04-26 01:28 -35.14719 147.50333 2045 ft 159 kts 32°
2026-04-26 01:28 -35.13670 147.50621 2579 ft 159 kts 352°
2026-04-26 01:29 -35.12719 147.49997 3062 ft 159 kts 311°
2026-04-26 01:29 -35.12302 147.48773 3517 ft 161 kts 273°
2026-04-26 01:29 -35.12583 147.47481 3935 ft 165 kts 237°
2026-04-26 01:29 -35.13508 147.46599 4323 ft 170 kts 209°
2026-04-26 01:30 -35.14555 147.46016 4841 ft 170 kts 206°
2026-04-26 01:30 -35.15669 147.45453 5303 ft 170 kts 204°
2026-04-26 01:30 -35.16773 147.44939 5770 ft 172 kts 204°
2026-04-26 01:30 -35.17886 147.44406 6232 ft 172 kts 205°
2026-04-26 01:31 -35.18991 147.43861 6663 ft 174 kts 205°
2026-04-26 01:31 -35.20123 147.43291 7098 ft 176 kts 206°
2026-04-26 01:31 -35.21257 147.42711 7520 ft 177 kts 206°
2026-04-26 01:31 -35.22389 147.42125 7919 ft 180 kts 206°
2026-04-26 01:32 -35.23545 147.41519 8318 ft 182 kts 206°
2026-04-26 01:32 -35.24703 147.40910 8701 ft 184 kts 207°
2026-04-26 01:32 -35.25898 147.40285 9087 ft 186 kts 206°
2026-04-26 01:32 -35.27073 147.39674 9490 ft 186 kts 206°
2026-04-26 01:33 -35.28277 147.39041 9859 ft 188 kts 206°
2026-04-26 01:33 -35.29488 147.38402 10229 ft 190 kts 207°
2026-04-26 01:33 -35.30691 147.37762 10607 ft 190 kts 206°
2026-04-26 01:33 -35.31910 147.37114 10964 ft 192 kts 207°
2026-04-26 01:34 -35.33142 147.36456 11313 ft 194 kts 207°
2026-04-26 01:34 -35.34372 147.35800 11663 ft 194 kts 207°
2026-04-26 01:34 -35.35625 147.35130 11985 ft 197 kts 207°
2026-04-26 01:34 -35.36876 147.34460 12316 ft 198 kts 207°
2026-04-26 01:35 -35.38148 147.33778 12645 ft 199 kts 206°
2026-04-26 01:35 -35.39423 147.33096 12947 ft 200 kts 207°
2026-04-26 01:35 -35.40688 147.32417 13256 ft 200 kts 207°
2026-04-26 01:35 -35.41978 147.31726 13543 ft 202 kts 206°
2026-04-26 01:36 -35.43276 147.31029 13841 ft 202 kts 207°
2026-04-26 01:36 -35.44561 147.30337 14107 ft 204 kts 207°
2026-04-26 01:36 -35.45869 147.29636 14374 ft 205 kts 207°
2026-04-26 01:37 -35.48479 147.28230 14886 ft 207 kts 206°
2026-04-26 01:37 -35.49792 147.27524 15157 ft 206 kts 206°
2026-04-26 01:37 -35.51104 147.26817 15376 ft 209 kts 206°
2026-04-26 01:37 -35.52450 147.26091 15614 ft 209 kts 206°
2026-04-26 01:38 -35.53779 147.25375 15844 ft 211 kts 206°
2026-04-26 01:38 -35.55123 147.24651 16078 ft 211 kts 206°
2026-04-26 01:38 -35.56471 147.23923 16309 ft 212 kts 206°
2026-04-26 01:38 -35.57838 147.23184 16522 ft 213 kts 206°
2026-04-26 01:39 -35.59175 147.22463 16742 ft 213 kts 206°
2026-04-26 01:39 -35.60554 147.21719 16955 ft 214 kts 206°
2026-04-26 01:39 -35.61909 147.20985 17155 ft 215 kts 206°
2026-04-26 01:39 -35.63276 147.20247 17363 ft 215 kts 206°
2026-04-26 01:40 -35.64648 147.19505 17552 ft 216 kts 206°
2026-04-26 01:40 -35.66042 147.18750 17747 ft 217 kts 206°
2026-04-26 01:40 -35.67415 147.18008 17934 ft 218 kts 206°
2026-04-26 01:40 -35.68810 147.17252 18119 ft 218 kts 206°
2026-04-26 01:41 -35.70203 147.16498 18301 ft 219 kts 206°
2026-04-26 01:41 -35.71603 147.15738 18466 ft 220 kts 206°
2026-04-26 01:41 -35.72995 147.14983 18636 ft 220 kts 206°
2026-04-26 01:41 -35.74410 147.14217 18793 ft 222 kts 206°
2026-04-26 01:42 -35.75826 147.13448 18944 ft 223 kts 206°
2026-04-26 01:42 -35.77235 147.12683 19124 ft 222 kts 206°
2026-04-26 01:42 -35.78658 147.11909 19274 ft 223 kts 206°
2026-04-26 01:42 -35.80094 147.11130 19419 ft 224 kts 206°
2026-04-26 01:43 -35.81515 147.10358 19551 ft 225 kts 206°
2026-04-26 01:43 -35.82941 147.09581 19707 ft 225 kts 206°
2026-04-26 01:43 -35.84378 147.08800 19844 ft 226 kts 206°
2026-04-26 01:43 -35.85824 147.08011 19959 ft 228 kts 206°
2026-04-26 01:44 -35.87288 147.07216 20086 ft 229 kts 206°
2026-04-26 01:44 -35.88746 147.06422 20192 ft 231 kts 206°
2026-04-26 01:44 -35.90236 147.05611 20238 ft 237 kts 206°
2026-04-26 01:44 -35.91765 147.04778 20259 ft 244 kts 206°
2026-04-26 01:45 -35.93352 147.03914 20264 ft 253 kts 206°
2026-04-26 01:45 -35.94994 147.03017 20268 ft 263 kts 205°
2026-04-26 01:45 -35.96684 147.02098 20270 ft 272 kts 205°
2026-04-26 01:45 -35.98455 147.01134 20270 ft 281 kts 205°
2026-04-26 01:46 -36.00256 147.00153 20268 ft 290 kts 205°
2026-04-26 01:46 -36.02154 146.99118 20266 ft 299 kts 205°
2026-04-26 01:46 -36.04057 146.98079 20263 ft 307 kts 205°
2026-04-26 01:46 -36.06044 146.96991 20259 ft 314 kts 206°
2026-04-26 01:47 -36.07910 146.95589 20262 ft 317 kts 220°
2026-04-26 01:47 -36.09657 146.93870 20257 ft 323 kts 220°
2026-04-26 01:47 -36.11446 146.92119 20257 ft 328 kts 221°
2026-04-26 01:47 -36.13227 146.90363 20260 ft 333 kts 221°
2026-04-26 01:48 -36.15056 146.88565 20262 ft 337 kts 220°
2026-04-26 01:48 -36.16900 146.86754 20256 ft 340 kts 220°
2026-04-26 01:48 -36.18758 146.84930 20253 ft 342 kts 220°
2026-04-26 01:48 -36.20607 146.83116 20262 ft 344 kts 220°
2026-04-26 01:49 -36.22494 146.81264 20268 ft 345 kts 220°
2026-04-26 01:49 -36.24390 146.79404 20267 ft 347 kts 220°
2026-04-26 01:49 -36.26274 146.77562 20260 ft 348 kts 220°
2026-04-26 01:49 -36.28182 146.75687 20259 ft 349 kts 220°
2026-04-26 01:50 -36.30085 146.73814 20252 ft 350 kts 220°
2026-04-26 01:50 -36.31993 146.71939 20256 ft 350 kts 220°
2026-04-26 01:50 -36.33890 146.70073 20258 ft 350 kts 220°
2026-04-26 01:50 -36.35793 146.68199 20260 ft 350 kts 220°
2026-04-26 01:51 -36.37692 146.66330 20253 ft 351 kts 220°
2026-04-26 01:51 -36.39624 146.64430 20250 ft 351 kts 220°
2026-04-26 01:51 -36.41523 146.62560 20244 ft 350 kts 220°
2026-04-26 01:51 -36.43438 146.60666 20247 ft 350 kts 221°
2026-04-26 01:52 -36.45331 146.58795 20251 ft 350 kts 220°
2026-04-26 01:52 -36.47247 146.56903 20245 ft 351 kts 220°
2026-04-26 01:52 -36.49161 146.55013 20239 ft 351 kts 220°
2026-04-26 01:52 -36.51053 146.53143 20240 ft 352 kts 220°
2026-04-26 01:53 -36.52969 146.51250 20238 ft 352 kts 220°
2026-04-26 01:53 -36.54893 146.49342 20235 ft 352 kts 221°
2026-04-26 01:53 -36.56800 146.47453 20240 ft 352 kts 220°
2026-04-26 01:53 -36.58719 146.45554 20246 ft 351 kts 221°
2026-04-26 01:54 -36.60632 146.43655 20249 ft 352 kts 220°
2026-04-26 01:54 -36.62548 146.41753 20248 ft 352 kts 220°
2026-04-26 01:54 -36.64484 146.39828 20246 ft 353 kts 221°
2026-04-26 01:54 -36.66390 146.37933 20248 ft 353 kts 220°
2026-04-26 01:55 -36.68323 146.36014 20256 ft 354 kts 221°
2026-04-26 01:55 -36.70223 146.34120 20248 ft 353 kts 221°
2026-04-26 01:55 -36.72143 146.32207 20248 ft 353 kts 221°
2026-04-26 01:55 -36.74070 146.30280 20250 ft 353 kts 222°
2026-04-26 01:56 -36.75981 146.28380 20250 ft 353 kts 221°
2026-04-26 01:56 -36.77906 146.26460 20244 ft 353 kts 221°
2026-04-26 01:56 -36.79817 146.24553 20248 ft 353 kts 221°
2026-04-26 01:56 -36.81726 146.22644 20243 ft 354 kts 221°
2026-04-26 01:57 -36.83667 146.20702 20249 ft 354 kts 221°
2026-04-26 01:57 -36.85560 146.18808 20252 ft 354 kts 221°
2026-04-26 01:57 -36.87490 146.16876 20249 ft 355 kts 221°
2026-04-26 01:57 -36.89428 146.14935 20244 ft 355 kts 221°
2026-04-26 01:58 -36.91338 146.13022 20243 ft 355 kts 221°
2026-04-26 01:58 -36.93256 146.11096 20239 ft 355 kts 222°
2026-04-26 01:58 -36.95189 146.09155 20242 ft 355 kts 221°
2026-04-26 01:58 -36.97096 146.07219 20240 ft 355 kts 223°
2026-04-26 01:59 -36.99010 146.05276 20246 ft 355 kts 221°
2026-04-26 01:59 -37.00944 146.03342 20241 ft 356 kts 221°
2026-04-26 01:59 -37.02891 146.01390 20236 ft 356 kts 221°
2026-04-26 01:59 -37.04806 145.99466 20241 ft 356 kts 221°
2026-04-26 02:00 -37.06752 145.97510 20240 ft 356 kts 221°
2026-04-26 02:00 -37.08685 145.95561 20241 ft 356 kts 221°
2026-04-26 02:00 -37.10605 145.93625 20231 ft 356 kts 221°
2026-04-26 02:00 -37.12517 145.91696 19937 ft 353 kts 221°
2026-04-26 02:01 -37.14424 145.89764 19405 ft 347 kts 222°
2026-04-26 02:01 -37.16273 145.87885 18879 ft 342 kts 223°
2026-04-26 02:01 -37.18095 145.86035 18360 ft 337 kts 222°
2026-04-26 02:01 -37.19908 145.84186 17820 ft 333 kts 223°
2026-04-26 02:02 -37.21477 145.82126 17246 ft 326 kts 236°
2026-04-26 02:02 -37.22823 145.79829 16496 ft 327 kts 237°
2026-04-26 02:02 -37.24140 145.77573 16027 ft 320 kts 237°
2026-04-26 02:02 -37.25428 145.75339 15650 ft 311 kts 237°
2026-04-26 02:03 -37.26679 145.73173 15315 ft 302 kts 237°
2026-04-26 02:03 -37.27855 145.71062 15004 ft 293 kts 238°
2026-04-26 02:03 -37.29059 145.68971 14717 ft 296 kts 237°
2026-04-26 02:03 -37.30273 145.66879 14408 ft 304 kts 237°
2026-04-26 02:04 -37.31541 145.64691 13896 ft 317 kts 237°
2026-04-26 02:04 -37.32839 145.62454 13154 ft 322 kts 236°
2026-04-26 02:04 -37.34168 145.60179 12405 ft 319 kts 237°
2026-04-26 02:04 -37.35456 145.57956 11750 ft 313 kts 237°
2026-04-26 02:05 -37.36715 145.55794 11329 ft 302 kts 236°
2026-04-26 02:05 -37.37940 145.53659 10995 ft 302 kts 237°
2026-04-26 02:05 -37.39163 145.51533 10676 ft 302 kts 236°
2026-04-26 02:05 -37.40389 145.49409 10332 ft 303 kts 237°
2026-04-26 02:06 -37.41647 145.47217 9833 ft 307 kts 237°
2026-04-26 02:06 -37.42899 145.45038 9448 ft 307 kts 237°
2026-04-26 02:06 -37.44131 145.42866 9108 ft 304 kts 237°
2026-04-26 02:06 -37.45459 145.40913 8811 ft 291 kts 225°
2026-04-26 02:07 -37.46957 145.39290 8561 ft 274 kts 224°
2026-04-26 02:07 -37.48349 145.37744 8322 ft 259 kts 224°
2026-04-26 02:07 -37.49668 145.36313 8095 ft 244 kts 224°
2026-04-26 02:07 -37.50911 145.34970 7887 ft 228 kts 225°
2026-04-26 02:08 -37.52069 145.33710 7701 ft 216 kts 225°
2026-04-26 02:08 -37.53198 145.32457 7533 ft 218 kts 226°
2026-04-26 02:08 -37.54357 145.31177 7346 ft 220 kts 226°
2026-04-26 02:08 -37.55516 145.29897 7155 ft 227 kts 226°
2026-04-26 02:09 -37.56744 145.28525 6955 ft 241 kts 225°
2026-04-26 02:09 -37.58021 145.27118 6734 ft 247 kts 225°
2026-04-26 02:09 -37.59333 145.25668 6505 ft 252 kts 225°
2026-04-26 02:09 -37.60649 145.24216 6287 ft 253 kts 225°
2026-04-26 02:10 -37.61976 145.22768 6066 ft 254 kts 224°
2026-04-26 02:10 -37.63324 145.21295 5844 ft 254 kts 225°
2026-04-26 02:10 -37.64653 145.19836 5624 ft 255 kts 225°
2026-04-26 02:10 -37.65991 145.18368 5402 ft 255 kts 225°
2026-04-26 02:11 -37.67326 145.16899 5181 ft 253 kts 225°
2026-04-26 02:11 -37.68634 145.15462 4966 ft 252 kts 225°
2026-04-26 02:11 -37.69975 145.13989 4742 ft 251 kts 225°
2026-04-26 02:11 -37.71275 145.12560 4521 ft 250 kts 226°
2026-04-26 02:12 -37.72342 145.10922 4258 ft 229 kts 253°
2026-04-26 02:12 -37.72542 145.09140 4098 ft 198 kts 274°
2026-04-26 02:12 -37.72616 145.07448 3951 ft 192 kts 272°
2026-04-26 02:12 -37.72676 145.05765 3791 ft 189 kts 274°
2026-04-26 02:13 -37.72726 145.04128 3625 ft 188 kts 274°
2026-04-26 02:13 -37.72776 145.02489 3465 ft 187 kts 274°
2026-04-26 02:13 -37.72823 145.00864 3308 ft 178 kts 274°
2026-04-26 02:13 -37.72878 144.99396 3130 ft 154 kts 276°
2026-04-26 02:14 -37.72927 144.98160 2954 ft 132 kts 278°
2026-04-26 02:14 -37.72945 144.97028 2901 ft 127 kts 279°
2026-04-26 02:14 -37.72949 144.95860 2901 ft 141 kts 280°
2026-04-26 02:14 -37.72953 144.94563 2852 ft 153 kts 277°
2026-04-26 02:15 -37.72993 144.93224 2645 ft 152 kts 276°
2026-04-26 02:15 -37.73034 144.91923 2522 ft 150 kts 276°
2026-04-26 02:15 -37.73072 144.90616 2454 ft 146 kts 276°
2026-04-26 02:15 -37.73116 144.89372 2339 ft 140 kts 278°
2026-04-26 02:16 -37.73181 144.88138 2190 ft 141 kts 275°
2026-04-26 02:16 -37.73230 144.86909 1973 ft 137 kts 283°
2026-04-26 02:16 -37.72969 144.85867 1747 ft 118 kts 316°
2026-04-26 02:16 -37.72426 144.85109 1573 ft 114 kts 326°
2026-04-26 02:17 -37.71751 144.84674 1416 ft 109 kts 349°
2026-04-26 02:17 -37.70981 144.84538 1204 ft 112 kts 353°
2026-04-26 02:17 -37.70199 144.84407 933 ft 112 kts 353°
2026-04-26 02:17 -37.69424 144.84258 703 ft 112 kts 354°
2026-04-26 02:18 -37.68653 144.84109 441 ft 118 kts 354°
2026-04-26 02:18 -37.67864 144.83983 364 ft 106 kts 352°
2026-04-26 02:18 -37.67257 144.83861 380 ft 63 kts 354°
2026-04-26 02:18 -37.66968 144.83850 391 ft 33 kts 15°
2026-04-26 02:19 -37.66838 144.83913 394 ft 9 kts 21°
2026-04-26 02:19 -37.66830 144.83917 394 ft 0 kts 22°
2026-04-26 02:20 -37.66798 144.83934 395 ft 11 kts 21°
2026-04-26 02:20 -37.66790 144.83987 395 ft 16 kts 171°
2026-04-26 02:20 -37.66960 144.84015 390 ft 26 kts 172°
2026-04-26 02:20 -37.67139 144.84050 385 ft 26 kts 173°
2026-04-26 02:21 -37.67231 144.84199 384 ft 24 kts 109°
2026-04-26 02:21 -37.67358 144.84299 382 ft 23 kts 173°
2026-04-26 02:21 -37.67513 144.84346 379 ft 19 kts 139°
2026-04-26 02:21 -37.67540 144.84419 380 ft 5 kts 117°
2026-04-26 02:22 -37.67551 144.84444 380 ft 1 kts 117°
2026-04-26 02:22 -37.67555 144.84454 380 ft 1 kts 117°
2026-04-26 02:22 -37.67556 144.84456 380 ft 0 kts 116°